This demonstration page uses our WeatherBlox Daily Observations layout. Learn more.

Left ArrowRight Arrow

39.01783, -85.05884

Hourly Observations for August 26, 2022

Temp ( °F °C ) Dew Point ( °F °C ) Humidity (%) Winds ( mph kmh ) Pressure ( in mb ) Visibility ( mi km ) Precip ( " mm )
12:52 am 00:52 Mostly Cloudy 70 21.1 65 18.3 84 84 SSW 6 9 30.01 1016 9 14 0.00 0.00
1:52 am 01:52 Cloudy 71 21.7 65 18.3 81 81 SW 3 6 30.01 1016 10 16 0.00 0.00
2:52 am 02:52 Partly Cloudy 70 21.1 65 18.3 84 84 SW 5 7 29.99 1016 9 14 0.00 0.00
3:52 am 03:52 Mostly Clear 69 20.6 65 18.3 87 87 SW 5 7 29.98 1015 9 14 0.00 0.00
4:52 am 04:52 Mostly Clear 69 20.6 64 17.8 84 84 Calm 29.98 1015 8 13 0.00 0.00
5:52 am 05:52 Partly Cloudy 69 20.6 64 17.8 84 84 W 3 6 29.98 1015 9 14 0.00 0.00
6:52 am 06:52 Mostly Cloudy 69 20.6 65 18.3 87 87 Calm 29.98 1015 8 13 0.00 0.00
7:52 am 07:52 Mostly Cloudy 69 20.6 65 18.3 87 87 Calm 29.99 1016 8 13 0.00 0.00
8:52 am 08:52 Mostly Sunny 72 22.2 65 18.3 79 79 WSW 7 11 30.01 1016 9 14 0.00 0.00
9:52 am 09:52 Mostly Sunny 75 23.9 67 19.4 76 76 W 6 9 30.01 1016 8 13 0.00 0.00
10:52 am 10:52 Mostly Sunny 78 25.6 68 20 71 71 VRB 3 6 30.01 1016 10 16 0.00 0.00
11:52 am 11:52 Mostly Sunny 81 27.2 69 20.6 67 67 W 7 11 30.01 1016 10 16 0.00 0.00
12:52 pm 12:52 Partly Cloudy 82 27.8 71 21.7 69 69 NNW 6 9 30.00 1016 9 14 0.01 0.13
1:52 pm 13:52 Mostly Cloudy 77 25 70 21.1 79 79 W 8 13 29.98 1015 8 13 0.02 0.51
2:11 pm 14:11 Mostly Cloudy with Nearby Thunderstorms 75 23.9 70 21.1 84 84 SSW 6 9 29.99 1015 8 13 0.00 0.00
2:39 pm 14:39 Mostly Cloudy 77 25 71 21.7 82 82 SW 9 15 29.98 1015 9 14 0.00 0.00
2:52 pm 14:52 Mostly Cloudy 80 26.7 70 21.1 71 71 SW 8 13 29.98 1015 10 16 0.00 0.00
3:52 pm 15:52 Partly Cloudy 84 28.9 70 21.1 63 63 WSW 7 11 29.96 1015 10 16 0.00 0.00
4:52 pm 16:52 Partly Cloudy 86 30 65 18.3 50 50 N 10 17 29.95 1014 10 16 0.00 0.00
5:52 pm 17:52 Mostly Sunny 85 29.4 66 18.9 53 53 NNW 10 17 29.95 1014 10 16 0.00 0.00
6:52 pm 18:52 Mostly Sunny 83 28.3 66 18.9 57 57 N 10 17 29.96 1015 10 16 0.00 0.00
7:52 pm 19:52 Mostly Sunny 79 26.1 66 18.9 65 65 NNW 8 13 29.98 1015 10 16 0.00 0.00
8:52 pm 20:52 Clear 76 24.4 65 18.3 69 69 N 6 9 29.99 1016 10 16 0.00 0.00
9:52 pm 21:52 Clear 74 23.3 64 17.8 71 71 N 6 9 30.01 1016 10 16 0.00 0.00
10:52 pm 22:52 Clear 75 23.9 63 17.2 66 66 NNE 9 15 30.02 1017 10 16 0.00 0.00
11:52 pm 23:52 Clear 74 23.3 65 18.3 74 74 NE 9 15 30.02 1017 10 16 0.00 0.00

Powered by AerisWeather